STARLINK-3913, 52485

Orbit data source: Space-Track

STARLINK-3913, 52485 is a payload satellite owned by SpaceX/Seattle (US) in LEO that was launched on Fri, 06 May 2022 UTC via an FALCON 9 launch vehicle from the Air Force Eastern Test Range (AFETR). Payload-class satellites include a variety of spacecraft equipped with specific instruments for various scientific and technological missions. These include communications satellites like Starlink; space stations such as the ISS; scientific satellites like the Hubble; Earth observation satellites from companies like Planet Labs, Umbra, and HawkEye 360; GPS; miniature CubeSats for education and research; and military/defense satellites.

Loading next visibility...
Identifier
52485, 2022-049AL
Orbit
LEO
Country
Flag of USUS
Related business
Manufacturer
SpaceX/Seattle
Mission
Operational Commercial Communications
Bus & Motor
STARLINK, Unknown motor
Mass
297 kg wet, ~220 kg dry
Launch date (UTC)
2022-05-06 (4 years ago)
Launch vehicle
FALCON 9
Launch site
Air Force Eastern Test Range (AFETR)
Object type
Payload
Rocket body
Debris
Shape & HBR
Box + 1 Pan, 10.1 m
Radar Cross Section
13.562 m², Large (>1 m²)

Expand to show TLE details & history
Last TLE update: 1 day ago

TLE from 1 day ago
0 STARLINK-3913
1 52485U 22049AL  25346.60439811 -.00000289  00000-0 -49882-7 0  9992
2 52485  53.2182  80.0614 0001372  91.5622 268.5527 15.08832137199242
Epoch: 2025-12-12T14:30Z
TLE epoch observation values (Epoch: 2025-12-12T14:30:19.996Z)
Latitude
-0.00006°
Longitude
140.9344°
Altitude
540.689 km
Speed
7.593 km/s
True Right ascension
05h 20m 14s
True Declination
0° 00' 00"
Sunlit
Object was in full shadow at epoch
Visualization orbit readout
Latitude
Unknown
Longitude
Unknown
Altitude
Unknown
Speed
Unknown
Apparent Right ascension
Unknown
Apparent Declination
Unknown
Sunlit
N/A
Visualization observer readout
Local Sidereal Time
13:01:40
Azimuth
Unknown
Elevation
Unknown
Doppler factor
Unknown
Orbital elements
Apogee altitude
540.961 km
Perigee altitude
539.063 km
Semi-major axis
6,918.149 km
Eccentricity
0.00014
Inclination
53.2182°
RAAN
80.0614°
Arg. of periapsis
91.5622°
True anomaly
268.53698°
Mean anomaly
268.5527°
Eccentric anomaly
268.54484°
Mean motion
3.77188 °/min
Orbital period
95.44 mins
BSTAR
-4.9882e-8
Loading maneuver chart data...
Computing Atmospheric mass density...
Loading historical data...
Loading historical data...
Loading historical data...
Loading historical data...
Loading historical data...
Loading historical data...
Loading historical data...

Documentation

Showing up to 5 results
|